Time,TemperatureF,DewpointF,PressureIn,WindDirection,WindDirectionDegrees,WindSpeedMPH,WindSpeedGustMPH,Humidity,HourlyPrecipIn,Conditions,Clouds,dailyrainin,SoftwareType,DateUTC
2013-06-06 00:02:00,59.0,51.0,29.99,WNW,285,0.0,1.0,75,0.00,,,0.00,,2013-06-06 05:02:00,
2013-06-06 00:12:00,59.0,51.0,29.99,WNW,285,0.0,1.0,75,0.00,,,0.00,,2013-06-06 05:12:00,
2013-06-06 00:22:00,58.0,52.0,29.99,WNW,285,0.0,1.0,80,0.00,,,0.00,,2013-06-06 05:22:00,
2013-06-06 00:32:00,57.0,51.0,29.99,WNW,285,0.0,0.0,80,0.00,,,0.00,,2013-06-06 05:32:00,
2013-06-06 00:42:00,57.0,51.0,29.99,WNW,285,0.0,0.0,80,0.00,,,0.00,,2013-06-06 05:42:00,
2013-06-06 00:52:00,56.0,51.0,29.99,WNW,285,0.0,0.0,83,0.00,,,0.00,,2013-06-06 05:52:00,
2013-06-06 01:02:00,56.0,52.0,29.98,WNW,285,0.0,0.0,86,0.00,,,0.00,,2013-06-06 06:02:00,
2013-06-06 01:12:00,56.0,52.0,29.98,WNW,285,0.0,0.0,86,0.00,,,0.00,,2013-06-06 06:12:00,
2013-06-06 01:22:00,55.0,52.0,29.98,WNW,285,0.0,0.0,88,0.00,,,0.00,,2013-06-06 06:22:00,
2013-06-06 01:32:00,55.0,51.0,29.98,WNW,285,0.0,0.0,87,0.00,,,0.00,,2013-06-06 06:32:00,
2013-06-06 01:42:00,55.0,51.0,29.98,WNW,285,0.0,0.0,87,0.00,,,0.00,,2013-06-06 06:42:00,
2013-06-06 01:52:00,54.0,50.0,29.98,WNW,285,0.0,0.0,87,0.00,,,0.00,,2013-06-06 06:52:00,
2013-06-06 02:02:00,54.0,51.0,29.98,WNW,285,0.0,2.0,88,0.00,,,0.00,,2013-06-06 07:02:00,
2013-06-06 02:12:00,54.0,51.0,29.98,WNW,285,0.0,2.0,88,0.00,,,0.00,,2013-06-06 07:12:00,
2013-06-06 02:22:00,55.0,51.0,29.97,WNW,285,0.0,3.0,87,0.00,,,0.00,,2013-06-06 07:22:00,
2013-06-06 02:32:00,55.0,52.0,29.97,WNW,285,0.0,1.0,88,0.00,,,0.00,,2013-06-06 07:32:00,
2013-06-06 02:42:00,55.0,52.0,29.97,WNW,285,0.0,1.0,88,0.00,,,0.00,,2013-06-06 07:42:00,
2013-06-06 02:52:00,56.0,52.0,29.96,WNW,285,0.0,3.0,87,0.00,,,0.00,,2013-06-06 07:52:00,
2013-06-06 03:02:00,57.0,52.0,29.96,WNW,285,0.0,2.0,84,0.00,,,0.00,,2013-06-06 08:02:00,
2013-06-06 03:12:00,57.0,52.0,29.96,WNW,285,0.0,2.0,84,0.00,,,0.00,,2013-06-06 08:12:00,
2013-06-06 03:22:00,57.0,52.0,29.96,WNW,285,0.0,4.0,83,0.00,,,0.00,,2013-06-06 08:22:00,
2013-06-06 03:32:00,56.0,51.0,29.96,WNW,285,0.0,1.0,83,0.00,,,0.00,,2013-06-06 08:32:00,
2013-06-06 03:42:00,56.0,51.0,29.96,WNW,285,0.0,3.0,84,0.00,,,0.00,,2013-06-06 08:42:00,
2013-06-06 03:52:00,56.0,51.0,29.96,WNW,285,0.0,3.0,84,0.00,,,0.00,,2013-06-06 08:52:00,
2013-06-06 04:02:00,57.0,53.0,29.95,WNW,285,0.0,5.0,85,0.00,,,0.00,,2013-06-06 09:02:00,
2013-06-06 04:12:00,57.0,53.0,29.95,WNW,285,0.0,5.0,85,0.00,,,0.00,,2013-06-06 09:12:00,
2013-06-06 04:22:00,57.0,53.0,29.95,NNW,327,0.0,4.0,85,0.00,,,0.00,,2013-06-06 09:22:00,
2013-06-06 04:33:00,57.0,53.0,29.95,WNW,296,0.0,6.0,85,0.00,,,0.00,,2013-06-06 09:33:00,
2013-06-06 04:43:00,57.0,53.0,29.95,WNW,296,0.0,6.0,85,0.00,,,0.00,,2013-06-06 09:43:00,
2013-06-06 04:53:00,57.0,53.0,29.94,WNW,296,0.0,2.0,85,0.00,,,0.00,,2013-06-06 09:53:00,
2013-06-06 05:03:00,57.0,53.0,29.95,WNW,294,0.0,2.0,86,0.00,,,0.00,,2013-06-06 10:03:00,
2013-06-06 05:12:00,57.0,53.0,29.94,WNW,294,0.0,2.0,86,0.00,,,0.00,,2013-06-06 10:12:00,
2013-06-06 05:23:00,57.0,53.0,29.94,WNW,294,0.0,2.0,86,0.00,,,0.00,,2013-06-06 10:23:00,
2013-06-06 05:33:00,57.0,53.0,29.94,WNW,296,2.0,3.0,86,0.00,,,0.00,,2013-06-06 10:33:00,
2013-06-06 05:42:00,58.0,54.0,29.95,NW,308,1.0,5.0,87,0.00,,,0.00,,2013-06-06 10:42:00,
2013-06-06 05:52:00,58.0,54.0,29.95,NW,308,1.0,5.0,87,0.00,,,0.00,,2013-06-06 10:52:00,
2013-06-06 06:02:00,58.0,54.0,29.94,North,355,0.0,5.0,86,0.00,,,0.00,,2013-06-06 11:02:00,
2013-06-06 06:12:00,58.0,54.0,29.94,North,355,0.0,5.0,86,0.00,,,0.00,,2013-06-06 11:12:00,
2013-06-06 06:22:00,57.0,53.0,29.95,North,355,3.0,7.0,87,0.00,,,0.00,,2013-06-06 11:22:00,
2013-06-06 06:32:00,57.0,53.0,29.96,NW,309,3.0,6.0,87,0.00,,,0.00,,2013-06-06 11:32:00,
2013-06-06 06:42:00,57.0,53.0,29.96,NW,309,3.0,6.0,87,0.00,,,0.00,,2013-06-06 11:42:00,
2013-06-06 06:52:00,58.0,54.0,29.96,WNW,302,0.0,7.0,87,0.00,,,0.00,,2013-06-06 11:52:00,
2013-06-06 07:02:00,58.0,54.0,29.96,NNW,338,1.0,9.0,86,0.00,,,0.00,,2013-06-06 12:02:00,
2013-06-06 07:12:00,58.0,54.0,29.96,NNW,338,1.0,9.0,86,0.00,,,0.00,,2013-06-06 12:12:00,
2013-06-06 07:22:00,59.0,55.0,29.96,NW,309,2.0,6.0,86,0.00,,,0.00,,2013-06-06 12:22:00,
2013-06-06 07:32:00,59.0,55.0,29.96,NW,322,0.0,8.0,86,0.00,,,0.00,,2013-06-06 12:32:00,
2013-06-06 07:42:00,59.0,55.0,29.96,NW,319,4.0,10.0,86,0.00,,,0.00,,2013-06-06 12:42:00,
2013-06-06 07:53:00,59.0,55.0,29.96,NW,319,4.0,10.0,86,0.00,,,0.00,,2013-06-06 12:53:00,
2013-06-06 08:03:00,60.0,56.0,29.97,NW,325,4.0,9.0,86,0.00,,,0.00,,2013-06-06 13:03:00,
2013-06-06 08:12:00,60.0,55.0,29.98,NNW,348,3.0,11.0,85,0.00,,,0.00,,2013-06-06 13:12:00,
2013-06-06 08:22:00,60.0,55.0,29.98,NNW,348,3.0,11.0,85,0.00,,,0.00,,2013-06-06 13:22:00,
2013-06-06 08:32:00,61.0,56.0,29.98,NW,320,3.0,9.0,84,0.00,,,0.00,,2013-06-06 13:32:00,
2013-06-06 08:42:00,61.0,56.0,29.98,NW,320,3.0,9.0,84,0.00,,,0.00,,2013-06-06 13:42:00,
2013-06-06 08:53:00,60.0,55.0,29.99,NW,319,2.0,10.0,85,0.00,,,0.00,,2013-06-06 13:53:00,
2013-06-06 09:03:00,61.0,56.0,29.99,NW,326,3.0,9.0,85,0.00,,,0.00,,2013-06-06 14:03:00,
2013-06-06 09:12:00,61.0,56.0,29.99,NW,326,3.0,9.0,85,0.00,,,0.00,,2013-06-06 14:12:00,
2013-06-06 09:22:00,62.0,57.0,29.99,NNW,339,4.0,8.0,84,0.00,,,0.00,,2013-06-06 14:22:00,
2013-06-06 09:33:00,62.0,57.0,29.99,NNW,333,1.0,7.0,84,0.00,,,0.00,,2013-06-06 14:33:00,
2013-06-06 09:43:00,62.0,57.0,29.99,NNW,333,1.0,7.0,84,0.00,,,0.00,,2013-06-06 14:43:00,
2013-06-06 09:53:00,63.0,58.0,29.99,NE,53,2.0,8.0,84,0.00,,,0.00,,2013-06-06 14:53:00,
2013-06-06 10:03:00,64.0,58.0,29.99,NNW,336,3.0,9.0,81,0.00,,,0.00,,2013-06-06 15:03:00,
2013-06-06 10:12:00,64.0,58.0,29.99,NNW,336,3.0,9.0,81,0.00,,,0.00,,2013-06-06 15:12:00,
2013-06-06 10:23:00,66.0,59.0,29.99,North,355,1.0,8.0,79,0.00,,,0.00,,2013-06-06 15:23:00,
2013-06-06 10:33:00,67.0,59.0,29.98,NNW,332,1.0,7.0,75,0.00,,,0.00,,2013-06-06 15:33:00,
2013-06-06 10:43:00,67.0,59.0,29.98,NNW,332,1.0,7.0,75,0.00,,,0.00,,2013-06-06 15:43:00,
2013-06-06 10:53:00,67.0,58.0,29.97,NNE,30,3.0,8.0,74,0.00,,,0.00,,2013-06-06 15:53:00,
2013-06-06 11:03:00,68.0,60.0,29.97,North,355,3.0,6.0,75,0.00,,,0.00,,2013-06-06 16:03:00,
2013-06-06 11:12:00,68.0,60.0,29.97,North,355,3.0,6.0,75,0.00,,,0.00,,2013-06-06 16:12:00,
2013-06-06 11:23:00,69.0,57.0,29.97,North,355,3.0,9.0,66,0.00,,,0.00,,2013-06-06 16:23:00,
2013-06-06 11:33:00,69.0,58.0,29.97,North,355,5.0,12.0,67,0.00,,,0.00,,2013-06-06 16:33:00,
2013-06-06 11:43:00,69.0,58.0,29.97,North,355,5.0,12.0,67,0.00,,,0.00,,2013-06-06 16:43:00,
2013-06-06 11:53:00,70.0,57.0,29.97,NW,314,4.0,14.0,64,0.00,,,0.00,,2013-06-06 16:53:00,
2013-06-06 12:03:00,70.0,56.0,29.96,NNE,15,2.0,11.0,62,0.00,,,0.00,,2013-06-06 17:03:00,
2013-06-06 12:13:00,71.0,56.0,29.96,ENE,62,5.0,9.0,59,0.00,,,0.00,,2013-06-06 17:13:00,
2013-06-06 12:22:00,71.0,56.0,29.96,ENE,62,5.0,9.0,59,0.00,,,0.00,,2013-06-06 17:22:00,
2013-06-06 12:32:00,72.0,58.0,29.96,North,5,1.0,11.0,61,0.00,,,0.00,,2013-06-06 17:32:00,
2013-06-06 12:42:00,72.0,58.0,29.96,North,5,1.0,11.0,61,0.00,,,0.00,,2013-06-06 17:42:00,
2013-06-06 12:53:00,71.0,55.0,29.96,NW,323,5.0,9.0,57,0.00,,,0.00,,2013-06-06 17:53:00,
2013-06-06 13:03:00,72.0,55.0,29.96,North,10,2.0,13.0,56,0.00,,,0.00,,2013-06-06 18:03:00,
2013-06-06 13:13:00,72.0,55.0,29.96,North,10,2.0,13.0,56,0.00,,,0.00,,2013-06-06 18:13:00,
2013-06-06 13:23:00,72.0,56.0,29.96,NNW,345,2.0,13.0,57,0.00,,,0.00,,2013-06-06 18:23:00,
2013-06-06 13:33:00,72.0,54.0,29.96,North,351,0.0,11.0,53,0.00,,,0.00,,2013-06-06 18:33:00,
2013-06-06 13:43:00,72.0,54.0,29.96,North,351,0.0,11.0,53,0.00,,,0.00,,2013-06-06 18:43:00,
2013-06-06 13:53:00,70.0,53.0,29.96,NNW,348,5.0,9.0,54,0.00,,,0.00,,2013-06-06 18:53:00,
2013-06-06 14:03:00,71.0,54.0,29.96,NW,305,6.0,10.0,54,0.00,,,0.00,,2013-06-06 19:03:00,
2013-06-06 14:12:00,71.0,54.0,29.96,NNW,332,5.0,8.0,55,0.00,,,0.00,,2013-06-06 19:12:00,
2013-06-06 14:23:00,71.0,54.0,29.96,NNW,332,5.0,8.0,55,0.00,,,0.00,,2013-06-06 19:23:00,
2013-06-06 14:33:00,71.0,54.0,29.96,NW,311,7.0,10.0,56,0.00,,,0.00,,2013-06-06 19:33:00,
2013-06-06 14:42:00,71.0,54.0,29.96,NW,311,7.0,10.0,56,0.00,,,0.00,,2013-06-06 19:42:00,
2013-06-06 14:53:00,70.0,54.0,29.96,North,360,1.0,10.0,57,0.00,,,0.00,,2013-06-06 19:53:00,
2013-06-06 15:03:00,71.0,55.0,29.96,NW,308,4.0,9.0,57,0.00,,,0.00,,2013-06-06 20:03:00,
2013-06-06 15:13:00,71.0,55.0,29.96,NW,308,4.0,9.0,57,0.00,,,0.00,,2013-06-06 20:13:00,
2013-06-06 15:23:00,72.0,55.0,29.95,NNW,341,3.0,10.0,56,0.00,,,0.00,,2013-06-06 20:23:00,
2013-06-06 15:33:00,72.0,54.0,29.96,NNE,15,8.0,12.0,54,0.00,,,0.00,,2013-06-06 20:33:00,
2013-06-06 15:53:00,74.0,57.0,29.95,NNE,19,1.0,9.0,55,0.00,,,0.00,,2013-06-06 20:53:00,
2013-06-06 16:03:00,74.0,55.0,29.95,NW,323,2.0,14.0,52,0.00,,,0.00,,2013-06-06 21:03:00,
2013-06-06 16:12:00,74.0,55.0,29.95,NW,323,2.0,14.0,52,0.00,,,0.00,,2013-06-06 21:12:00,
2013-06-06 16:22:00,73.0,54.0,29.95,North,360,6.0,12.0,52,0.00,,,0.00,,2013-06-06 21:22:00,
2013-06-06 16:33:00,73.0,56.0,29.95,NW,315,8.0,13.0,56,0.00,,,0.00,,2013-06-06 21:33:00,
2013-06-06 16:43:00,73.0,56.0,29.95,NW,315,8.0,13.0,56,0.00,,,0.00,,2013-06-06 21:43:00,
2013-06-06 16:53:00,74.0,54.0,29.95,NNW,342,4.0,12.0,50,0.00,,,0.00,,2013-06-06 21:53:00,
2013-06-06 17:03:00,72.0,54.0,29.95,NNE,22,0.0,12.0,54,0.00,,,0.00,,2013-06-06 22:03:00,
2013-06-06 17:13:00,72.0,54.0,29.95,NNE,22,0.0,12.0,54,0.00,,,0.00,,2013-06-06 22:13:00,
2013-06-06 17:23:00,72.0,54.0,29.95,North,5,3.0,8.0,53,0.00,,,0.00,,2013-06-06 22:23:00,
2013-06-06 17:33:00,72.0,54.0,29.95,NNW,348,2.0,11.0,54,0.00,,,0.00,,2013-06-06 22:33:00,
2013-06-06 17:43:00,72.0,54.0,29.95,NNW,348,2.0,11.0,54,0.00,,,0.00,,2013-06-06 22:43:00,
2013-06-06 17:53:00,71.0,53.0,29.95,NW,319,6.0,12.0,53,0.00,,,0.00,,2013-06-06 22:53:00,
2013-06-06 18:02:00,72.0,54.0,29.95,NW,315,3.0,9.0,53,0.00,,,0.00,,2013-06-06 23:02:00,
2013-06-06 18:12:00,72.0,54.0,29.95,NW,315,3.0,9.0,53,0.00,,,0.00,,2013-06-06 23:12:00,
2013-06-06 18:22:00,73.0,53.0,29.95,NNW,341,1.0,9.0,50,0.00,,,0.00,,2013-06-06 23:22:00,
2013-06-06 18:33:00,72.0,53.0,29.95,North,5,3.0,8.0,51,0.00,,,0.00,,2013-06-06 23:33:00,
2013-06-06 18:42:00,72.0,53.0,29.95,North,5,3.0,8.0,51,0.00,,,0.00,,2013-06-06 23:42:00,
2013-06-06 18:52:00,70.0,53.0,29.95,North,349,3.0,11.0,55,0.00,,,0.00,,2013-06-06 23:52:00,
2013-06-06 19:02:00,70.0,52.0,29.95,NW,310,5.0,9.0,53,0.00,,,0.00,,2013-06-07 00:02:00,
2013-06-06 19:12:00,70.0,52.0,29.95,NW,310,5.0,9.0,53,0.00,,,0.00,,2013-06-07 00:12:00,
2013-06-06 19:22:00,69.0,52.0,29.95,North,355,4.0,12.0,55,0.00,,,0.00,,2013-06-07 00:22:00,
2013-06-06 19:32:00,69.0,53.0,29.95,East,79,0.0,3.0,56,0.00,,,0.00,,2013-06-07 00:32:00,
2013-06-06 19:42:00,69.0,53.0,29.95,East,79,0.0,3.0,56,0.00,,,0.00,,2013-06-07 00:42:00,
2013-06-06 19:52:00,69.0,55.0,29.95,NE,37,0.0,2.0,60,0.00,,,0.00,,2013-06-07 00:52:00,
2013-06-06 20:02:00,68.0,53.0,29.96,NNE,24,1.0,5.0,58,0.00,,,0.00,,2013-06-07 01:02:00,
2013-06-06 20:12:00,68.0,53.0,29.96,NNE,24,1.0,5.0,58,0.00,,,0.00,,2013-06-07 01:12:00,
2013-06-06 20:22:00,68.0,54.0,29.96,NNE,15,0.0,4.0,60,0.00,,,0.00,,2013-06-07 01:22:00,
2013-06-06 20:32:00,67.0,53.0,29.96,North,355,1.0,6.0,61,0.00,,,0.00,,2013-06-07 01:32:00,
2013-06-06 20:42:00,67.0,53.0,29.96,North,355,1.0,6.0,61,0.00,,,0.00,,2013-06-07 01:42:00,
2013-06-06 20:52:00,67.0,54.0,29.96,NNE,23,0.0,1.0,62,0.00,,,0.00,,2013-06-07 01:52:00,
2013-06-06 21:02:00,66.0,53.0,29.96,NE,46,0.0,6.0,62,0.00,,,0.00,,2013-06-07 02:02:00,
2013-06-06 21:12:00,66.0,53.0,29.96,NE,46,0.0,6.0,62,0.00,,,0.00,,2013-06-07 02:12:00,
2013-06-06 21:22:00,66.0,53.0,29.95,NNW,327,0.0,4.0,63,0.00,,,0.00,,2013-06-07 02:22:00,
2013-06-06 21:32:00,65.0,53.0,29.96,NNE,19,0.0,3.0,66,0.00,,,0.00,,2013-06-07 02:32:00,
2013-06-06 21:42:00,65.0,53.0,29.96,NNE,19,0.0,3.0,66,0.00,,,0.00,,2013-06-07 02:42:00,
2013-06-06 21:52:00,65.0,53.0,29.96,NNE,24,1.0,4.0,66,0.00,,,0.00,,2013-06-07 02:52:00,
2013-06-06 22:02:00,64.0,54.0,29.96,NNE,25,0.0,1.0,69,0.00,,,0.00,,2013-06-07 03:02:00,
2013-06-06 22:12:00,64.0,54.0,29.96,NNE,25,0.0,1.0,69,0.00,,,0.00,,2013-06-07 03:12:00,
2013-06-06 22:22:00,63.0,53.0,29.97,NNE,25,0.0,1.0,70,0.00,,,0.00,,2013-06-07 03:22:00,
2013-06-06 22:33:00,63.0,53.0,29.98,NNE,25,0.0,0.0,71,0.00,,,0.00,,2013-06-07 03:33:00,
2013-06-06 22:43:00,63.0,53.0,29.98,NNE,25,0.0,0.0,71,0.00,,,0.00,,2013-06-07 03:43:00,
2013-06-06 22:53:00,62.0,53.0,29.98,NNE,25,0.0,0.0,73,0.00,,,0.00,,2013-06-07 03:53:00,
2013-06-06 23:03:00,61.0,53.0,29.98,NNE,25,0.0,0.0,75,0.00,,,0.00,,2013-06-07 04:03:00,
2013-06-06 23:12:00,61.0,53.0,29.98,NNE,25,0.0,0.0,75,0.00,,,0.00,,2013-06-07 04:12:00,
2013-06-06 23:22:00,60.0,53.0,29.98,NNE,25,0.0,0.0,77,0.00,,,0.00,,2013-06-07 04:22:00,
2013-06-06 23:33:00,60.0,53.0,29.98,NNE,25,0.0,0.0,78,0.00,,,0.00,,2013-06-07 04:33:00,
2013-06-06 23:42:00,60.0,53.0,29.98,NNE,25,0.0,0.0,78,0.00,,,0.00,,2013-06-07 04:42:00,
2013-06-06 23:53:00,59.0,53.0,29.98,NNE,29,0.0,2.0,80,0.00,,,0.00,,2013-06-07 04:53:00,